Current weather by "City, St" or "zip code"  
 

Current Conditions: Miami, Miami International Airport, FL

Partly Cloudy


77.0 F

Last Updated on Oct 31 2020, 3:53 am EDT
Humidity: 94%
Wind Speed: NE 3.5 mph
Barometer 29.98 in
Dewpoint: 75.0 F
Visibility: 10.00 mi
Precip: --
Heat Index: NA
Wind Chill: NA
Current conditions at:

Miami, Miami International Airport, FL (KMIA)

Lat: 25.79056 Lon: 80.31639

Local Radar Image active severe weather and emergency alerts image image weather storm and storm spotter reports image weather observation monitoring service image
Local
Radar
Active
Alerts
Storm Reports Obs
Monitoring

Sign-up For Email & Text Message Weather Alert Notification Services



Advertise Here

Observation History for Miami, Miami International Airport, FL


Time Wind
(mph)
Vis
(mi)
Weather Precip (in) Temperature (F) Relative
Humidity
Wind
Chill
(F)
Heat
Index
(F)
Pressure
Air Dwpt altimeter
(in)
sea level
(mb)
Rmks
3:53 am EDT NE 3.5 10.00 Partly Cloudy -- 77.0 75.0 94% NA NA 29.98 1015.3
2:53 am EDT N 3.5 10.00 Mostly Cloudy -- 77.0 73.0 88% NA NA 29.99 1015.7
1:53 am EDT NE 5.8 10.00 Thunderstorm Trace 78.0 75.9 93% NA NA 30.01 1016.1
12:53 am EDT NE 5.8 10.00 Mostly Cloudy Trace 78.0 75.0 90% NA NA 30.00 1015.9
11:53 pm EDT N 0.0 10.00 Mostly Cloudy -- 78.0 73.9 87% NA NA 30.01 1016.3
10:53 pm EDT N 0.0 10.00 Overcast 00.01 79.0 75.9 90% NA NA 30.01 1016.1
9:53 pm EDT N 0.0 6.00 Rain Fog/Mist 00.59 77.0 75.0 94% NA NA 30.00 1015.8
8:53 pm EDT NW 4.6 10.00 Overcast -- 81.0 71.1 72% NA 85 29.99 1015.5
7:53 pm EDT E 5.8 10.00 Mostly Cloudy -- 82.0 77.0 85% NA 90 29.97 1014.8
6:53 pm EDT SE 8.1 10.00 Overcast -- 83.0 75.9 79% NA 91 29.95 1014.1
5:53 pm EDT SE 8.1 10.00 Mostly Cloudy -- 83.0 75.9 79% NA 91 29.93 1013.4
4:53 pm EDT E 11.5 10.00 Mostly Cloudy -- 84.0 73.9 72% NA 91 29.92 1013.3
3:53 pm EDT S 5.8 10.00 Mostly Cloudy -- 88.0 73.0 61% NA 96 29.92 1013.1
2:53 pm EDT N 0.0 10.00 Mostly Cloudy -- 84.0 75.9 77% NA 93 29.92 1013.3
1:53 pm EDT SE 9.2 10.00 Mostly Cloudy -- 87.0 75.9 70% NA 97 29.93 1013.4
12:53 pm EDT E 10.4 10.00 Mostly Cloudy -- 87.0 75.0 67% NA 96 29.94 1014.0
11:53 am EDT SE 9.2 10.00 Mostly Cloudy -- 88.0 75.9 68% NA 99 29.96 1014.6
10:53 am EDT S 3.5 10.00 A Few Clouds -- 84.0 73.9 72% NA 91 29.96 1014.5
9:53 am EDT S 4.6 10.00 Mostly Cloudy -- 83.0 75.0 77% NA 90 29.97 1014.7
8:53 am EDT 4.6 10.00 A Few Clouds -- 81.0 77.0 88% NA 88 29.96 1014.4
7:53 am EDT N 0.0 10.00 A Few Clouds -- 80.0 77.0 90% NA 86 29.94 1013.9
6:53 am EDT SW 3.5 10.00 Partly Cloudy -- 79.0 77.0 94% NA NA 29.93 1013.5
5:53 am EDT N 0.0 10.00 A Few Clouds -- 78.0 75.9 93% NA NA 29.92 1013.1

Regional Weather Observation


Miami, Opa Locka Airport, FL (KOPF)

Thunderstorm in Vicinity
74.0 F

Fort Lauderdale/Hollywood International Airport, FL (KFLL)

Thunderstorm in Vicinity Rain
78.0 F

Miami, Miami International Airport, FL (KMIA)

Partly Cloudy
77.0 F

Fort Lauderdale, Fort Lauderdale Executive Airport, FL (KFXE)

Light Rain
80.0 F

Miami, Kendall-Tamiami Executive Airport, FL (KTMB)

Fair
77.0 F

Pompano Beach, Pompano Beach Airpark, FL (KPMP)

Overcast
80.0 F